[[{"header":{"parameterUnit":"m.s-1","parameterCategory":1,"la1":30.2991,"la2":30.254,"lo1":-89.0895,"lo2":-89.0444,"dy":0.0017,"dx":0.0017,"nx":28,"ny":28,"refTime":"2025-02-27T09:00:00:Z","depth":0,"parameterNumber":2,"parameterNumberName":"U-component_of_WINDS"},"data":[0,0,0,0,0,0,0,0,0,0,0,0,0,0,0,0,0,0,0,0,0,0,0,0,0,0,0,0,0,0,0,0,0,0,0,0,0,0,0,0,0,0,0,0,0,0,0,0,0,0,0,0,0,0,0,0,0,0,1.5077,1.5077,0,1.5135,1.5136,1.5137,1.5215,1.5217,1.5218,1.5219,1.5278,1.5278,1.5279,0,0,0,0,0,0,0,0,0,0,0,0,0,1.5033,1.5034,1.5077,1.5077,1.5078,1.5135,1.5136,1.5137,1.5215,1.5217,1.5218,1.522,1.5278,1.5278,1.5279,0,0,0,0,0,0,0,0,0,0,0,0,0,1.5068,1.5034,1.5077,1.5124,1.5129,1.5135,1.5136,1.5137,1.5215,1.5217,1.5219,1.5221,1.5278,1.5278,1.5279,1.5242,0,0,1.528,1.528,0,0,0,0,0,0,0,0,1.5066,1.5069,1.5116,1.5121,1.5126,1.517,1.5142,1.5172,1.5214,1.5182,1.5219,1.5222,1.524,1.5244,1.5251,1.5245,1.5248,1.528,1.5281,1.5281,1.5281,0,0,0,0,0,0,0,1.5063,1.5067,1.51,1.5117,1.5123,1.5143,1.515,1.5148,1.5199,1.5185,1.5191,1.5197,1.5243,1.525,1.5253,1.5248,1.528,1.5281,1.5281,1.5281,1.522,1.5218,0,0,0,0,0,0,1.5054,1.5065,1.5098,1.5102,1.51,1.5142,1.515,1.5154,1.52,1.5209,1.5195,1.52,1.5248,1.5252,1.5255,1.5218,1.5281,1.5281,1.5281,1.5221,1.5219,1.5217,0,0,0,0,0,0,1.5053,1.5056,1.5096,1.5085,1.5091,1.5141,1.5145,1.5154,1.5161,1.5207,1.5217,1.5193,1.525,1.5254,1.5246,1.5221,1.5281,1.5282,1.5224,1.5221,1.5218,1.5141,0,0,0,0,0,0,1.5051,1.5055,1.5041,1.5084,1.5092,1.5085,1.5143,1.5154,1.5162,1.5169,1.5207,1.5216,1.5252,1.5245,1.5246,1.5223,1.5282,1.5226,1.5222,1.5219,1.5146,1.5136,1.5127,0,0,0,0,0,1.5049,1.5016,1.504,1.5044,1.5076,1.5083,1.5088,1.513,1.5159,1.5146,1.5177,1.5214,1.5223,1.5243,1.5246,1.5222,1.5228,1.5223,1.5219,1.515,1.5138,1.5128,0,0,0,0,0,0,1.4968,1.5023,1.505,1.503,1.5052,1.5097,1.5081,1.5115,1.5129,1.5135,1.5187,1.5195,1.5181,1.52,1.5222,1.5191,1.5231,1.5227,1.5178,1.5167,1.5158,1.5153,1.5283,0,0,0,0,0,1.4948,1.495,1.4998,1.4975,1.4985,1.5031,1.5036,1.5067,1.5092,1.5101,1.5131,1.5153,1.5161,1.5165,1.5175,1.515,1.516,1.5135,1.5125,1.5117,1.5113,1.5104,1.5094,1.5203,1.5203,1.5203,0,0,1.4907,1.4937,1.4934,1.496,1.4981,1.4982,1.5038,1.5036,1.5038,1.5101,1.5095,1.5118,1.5146,1.513,1.5124,1.5145,1.5086,1.5112,1.5105,1.5105,1.5099,1.5088,1.5079,1.52,1.52,1.5201,0,0,1.4832,1.4854,1.484,1.4859,1.489,1.4922,1.4918,1.4959,1.4976,1.4972,1.502,1.5023,1.5035,1.5054,1.5065,1.5,1.5036,1.5002,1.4953,1.4943,1.4935,1.4928,1.4906,1.4898,1.4998,1.4998,1.4998,0,1.4776,1.478,1.4827,1.4824,1.4834,1.4892,1.4879,1.4895,1.4927,1.4934,1.4958,1.4976,1.4999,1.4989,1.4974,1.4981,1.4979,1.4998,1.4932,1.4925,1.4919,1.49,1.4891,1.4994,1.4994,1.4994,1.4995,0,1.4711,1.4713,1.4697,1.4729,1.4737,1.4728,1.4775,1.4778,1.481,1.4839,1.4835,1.4865,1.4883,1.4883,1.4912,1.4878,1.4891,1.4923,1.4965,1.4904,1.4887,1.4879,1.4987,1.4989,1.499,1.4991,0,0,1.4585,1.4645,1.4638,1.4654,1.4694,1.4697,1.4691,1.471,1.4713,1.4733,1.4731,1.4741,1.4772,1.4785,1.4818,1.4809,1.4759,1.4843,1.4844,1.4827,1.4725,1.4702,1.4692,1.4783,1.4782,1.4781,1.4724,0,1.4519,1.4513,1.4557,1.4539,1.4543,1.46,1.4595,1.4619,1.4647,1.4654,1.4685,1.4692,1.4731,1.474,1.4734,1.4766,1.4739,1.4771,1.4782,1.4782,1.4774,1.4683,1.4657,1.4602,1.4717,1.4716,1.4715,0,1.444,1.4458,1.4441,1.4485,1.4488,1.4483,1.4505,1.4511,1.4541,1.4562,1.4577,1.4615,1.4614,1.4654,1.4654,1.4675,1.4683,1.4699,1.4698,1.4701,1.4745,1.4685,1.4585,1.4577,1.4704,1.4705,1.4706,0,1.4352,1.4372,1.4366,1.4377,1.4427,1.4423,1.4443,1.4474,1.4484,1.4503,1.451,1.4529,1.4539,1.4553,1.4596,1.4621,1.4592,1.4635,1.4611,1.4609,1.4602,1.4602,1.4503,1.4605,1.4605,1.4605,1.4605,0,1.4274,1.4262,1.4327,1.4323,1.4312,1.4363,1.4351,1.4377,1.4405,1.4407,1.4457,1.4459,1.4515,1.4523,1.4557,1.4553,1.4557,1.4575,1.4584,1.4571,1.4569,1.4577,1.4582,1.4603,1.4603,1.4604,1.4604,0,1.4174,1.4217,1.4214,1.4262,1.4274,1.4263,1.4305,1.4304,1.4335,1.4338,1.4342,1.4391,1.4404,1.4449,1.4471,1.4494,1.4481,1.4498,1.4471,1.4477,1.445,1.4453,1.4354,1.4345,1.4451,1.445,1.4449,0,1.4121,1.4114,1.4161,1.4167,1.4186,1.4194,1.4205,1.4255,1.4264,1.4299,1.4294,1.4311,1.4327,1.4345,1.4383,1.4402,1.442,1.4385,1.4423,1.4411,1.4422,1.4422,1.4423,1.4376,1.4375,1.4373,1.4373,0,1.4024,1.4047,1.406,1.4081,1.4093,1.4112,1.4134,1.4136,1.4192,1.42,1.4214,1.4227,1.4252,1.4269,1.4294,1.4316,1.4354,1.436,1.4356,1.4343,1.4328,1.4338,1.4449,1.4362,1.4363,1.4364,1.4365,1.4365,1.3947,1.3944,1.3978,1.3992,1.4014,1.4034,1.4036,1.4069,1.4082,1.4107,1.4136,1.4147,1.4179,1.4218,1.4237,1.4247,1.4268,1.4261,1.4259,1.4257,1.4252,1.4326,1.4252,1.4252,1.4253,1.4253,1.4253,0,1.3854,1.3879,1.3892,1.3922,1.3933,1.3969,1.3996,1.4003,1.4012,1.404,1.4055,1.4073,1.409,1.4131,1.4152,1.4153,1.4171,1.4157,1.4158,1.4163,1.4231,1.4233,1.4142,1.4142,1.4142,1.4142,1.4142,1.4142,1.3807,1.3804,1.3831,1.3841,1.3866,1.3878,1.3891,1.391,1.3933,1.395,1.3965,1.3992,1.4025,1.405,1.4068,1.408,1.4086,1.4066,1.4084,1.4147,1.4157,1.4168,1.417,1.4067,1.4067,1.4015,1.4014,1.4014]},{"header":{"parameterUnit":"m.s-1","parameterCategory":1,"la1":30.2991,"la2":30.254,"lo1":-89.0895,"lo2":-89.0444,"dy":0.0017,"dx":0.0017,"nx":28,"ny":28,"refTime":"2025-02-27T09:00:00:Z","depth":0,"parameterNumber":3,"parameterNumberName":"V-component_of_WINDS"},"data":[0,0,0,0,0,0,0,0,0,0,0,0,0,0,0,0,0,0,0,0,0,0,0,0,0,0,0,0,0,0,0,0,0,0,0,0,0,0,0,0,0,0,0,0,0,0,0,0,0,0,0,0,0,0,0,0,0,0,0.0533,0.0533,0,0.0494,0.0493,0.0493,0.049,0.0491,0.0491,0.0491,0.045,0.0448,0.0447,0,0,0,0,0,0,0,0,0,0,0,0,0,0.0605,0.0604,0.0533,0.0533,0.0532,0.0494,0.0493,0.0493,0.049,0.0491,0.0491,0.0492,0.045,0.0449,0.0447,0,0,0,0,0,0,0,0,0,0,0,0,0,0.057,0.0603,0.0533,0.0526,0.0525,0.0494,0.0493,0.0493,0.049,0.0491,0.0491,0.0492,0.0451,0.0449,0.0446,0.0419,0,0,0.0439,0.0438,0,0,0,0,0,0,0,0,0.0572,0.0568,0.0528,0.0527,0.0526,0.0498,0.0503,0.0468,0.049,0.0503,0.0491,0.0492,0.0465,0.0462,0.0453,0.0417,0.0415,0.0439,0.0438,0.0437,0.0436,0,0,0,0,0,0,0,0.0575,0.0569,0.0518,0.0527,0.0526,0.0525,0.052,0.0496,0.0481,0.0502,0.0502,0.0497,0.0465,0.0455,0.0452,0.0415,0.0439,0.0437,0.0436,0.0435,0.0353,0.0352,0,0,0,0,0,0,0.0579,0.0571,0.0519,0.0516,0.0551,0.0523,0.0518,0.0506,0.0481,0.0478,0.0497,0.0497,0.0459,0.0454,0.045,0.0416,0.0437,0.0435,0.0433,0.0354,0.0353,0.0352,0,0,0,0,0,0,0.058,0.0574,0.052,0.0544,0.0537,0.0521,0.0507,0.0505,0.0495,0.0477,0.0474,0.049,0.0459,0.0453,0.0427,0.0414,0.0434,0.0432,0.0355,0.0353,0.0352,0.0347,0,0,0,0,0,0,0.0582,0.0575,0.0564,0.0544,0.0536,0.0498,0.0506,0.0503,0.0491,0.0492,0.047,0.0467,0.0459,0.043,0.0424,0.0411,0.043,0.0356,0.0354,0.0353,0.0348,0.0345,0.0343,0,0,0,0,0,0.0585,0.0564,0.0564,0.0558,0.0523,0.0497,0.0493,0.0484,0.049,0.048,0.0468,0.0468,0.0417,0.0427,0.0421,0.0407,0.0356,0.0355,0.0353,0.0349,0.0346,0.0343,0,0,0,0,0,0,0.0584,0.0561,0.0561,0.0533,0.0517,0.0497,0.0483,0.0481,0.0463,0.0464,0.0454,0.0449,0.0422,0.0412,0.0424,0.0378,0.0387,0.0384,0.0386,0.0383,0.0381,0.0384,0.0428,0,0,0,0,0,0.058,0.0562,0.0543,0.0521,0.0513,0.0499,0.0488,0.0483,0.0466,0.0459,0.0445,0.0428,0.0408,0.0395,0.0376,0.0346,0.0341,0.0334,0.0331,0.033,0.0327,0.0309,0.0305,0.0346,0.0346,0.0346,0,0,0.0573,0.0559,0.0548,0.052,0.0507,0.0488,0.0494,0.0473,0.0458,0.0455,0.0429,0.0418,0.0399,0.037,0.0357,0.0361,0.0314,0.0327,0.0326,0.0324,0.0307,0.0303,0.03,0.0345,0.0345,0.0345,0,0,0.055,0.0537,0.0517,0.0503,0.0484,0.0475,0.047,0.0449,0.0442,0.0416,0.0413,0.0395,0.0361,0.0347,0.0335,0.0306,0.0304,0.03,0.0287,0.0271,0.0267,0.0264,0.0253,0.0249,0.0297,0.0297,0.0297,0,0.0543,0.0514,0.0506,0.0485,0.0473,0.047,0.0448,0.0435,0.041,0.0401,0.0406,0.0363,0.035,0.0317,0.031,0.0301,0.0294,0.0302,0.0269,0.0266,0.0263,0.0252,0.0247,0.0296,0.0297,0.0297,0.0297,0,0.0506,0.0486,0.0471,0.0447,0.0433,0.0412,0.04,0.0387,0.0383,0.0373,0.0346,0.0329,0.0306,0.0298,0.0294,0.0265,0.0268,0.0271,0.0279,0.0258,0.0248,0.0244,0.0296,0.0296,0.0296,0.0296,0,0,0.0481,0.0452,0.0447,0.0436,0.0413,0.0397,0.0376,0.0353,0.0342,0.0324,0.0305,0.0276,0.0279,0.0265,0.026,0.0245,0.0221,0.0249,0.0249,0.0244,0.0187,0.0184,0.018,0.022,0.022,0.0219,0.0188,0,0.0454,0.0416,0.0408,0.0375,0.0356,0.0352,0.0333,0.0317,0.0307,0.0289,0.0278,0.0257,0.0262,0.0254,0.024,0.0227,0.0209,0.0229,0.0202,0.0201,0.0206,0.0174,0.0172,0.0144,0.0184,0.0183,0.0183,0,0.0419,0.04,0.0365,0.0345,0.0336,0.0319,0.0298,0.0281,0.0262,0.0256,0.0241,0.0236,0.0213,0.0223,0.019,0.0203,0.0192,0.0184,0.0182,0.0179,0.019,0.0169,0.0134,0.013,0.0176,0.0177,0.0177,0,0.0403,0.0369,0.0344,0.0334,0.031,0.0298,0.0287,0.0269,0.0256,0.0237,0.0228,0.0206,0.0194,0.0177,0.0167,0.0175,0.0134,0.0144,0.0128,0.0128,0.0119,0.012,0.0081,0.0113,0.0113,0.0113,0.0113,0,0.0374,0.0352,0.0336,0.0321,0.0296,0.0286,0.0262,0.0251,0.0235,0.0217,0.0212,0.0195,0.0183,0.0163,0.0155,0.0128,0.0123,0.0117,0.0115,0.0117,0.0118,0.0109,0.011,0.0112,0.0112,0.0112,0.0112,0,0.0352,0.034,0.0312,0.0291,0.0286,0.0268,0.025,0.0234,0.0224,0.0201,0.0195,0.0179,0.0156,0.0144,0.0115,0.0109,0.0079,0.0079,0.0086,0.0085,0.0069,0.0071,0.0023,0.0016,0.0053,0.0052,0.0052,0,0.0334,0.0317,0.0294,0.0282,0.0271,0.0251,0.0237,0.0227,0.0213,0.019,0.0176,0.0153,0.0134,0.0097,0.0082,0.006,0.0058,0.0043,0.0055,0.0057,0.0057,0.0058,0.0056,0.0041,0.0041,0.004,0.004,0,0.0303,0.0298,0.0279,0.0257,0.0241,0.0224,0.0206,0.0196,0.0183,0.0167,0.0144,0.0129,0.0099,0.0075,0.0052,0.004,0.0037,0.0037,0.0032,0.0033,0.0038,0.0034,0.0079,0.0038,0.0038,0.0038,0.0038,0.0038,0.0282,0.0266,0.0248,0.0226,0.0212,0.0196,0.018,0.0168,0.0148,0.0123,0.0118,0.0093,0.0074,0.0042,0.0029,0.0009,0.0012,0.0005,0.0003,0.0001,0.0,0.0042,0.0004,0.0005,0.0005,0.0005,0.0005,0,0.025,0.0237,0.0218,0.0194,0.0177,0.0176,0.0157,0.0142,0.012,0.0103,0.0084,0.0056,0.0033,0.0017,-0.0007,-0.002,-0.0022,-0.0026,-0.0026,-0.0028,-0.0001,0.0005,-0.0024,-0.0024,-0.0024,-0.0024,-0.0024,-0.0024,0.0231,0.0205,0.0198,0.0164,0.0152,0.0127,0.0116,0.0101,0.0086,0.0056,0.0037,0.0026,0.0009,-0.0016,-0.0037,-0.0042,-0.0051,-0.0055,-0.0059,-0.0033,-0.003,-0.0027,-0.0021,-0.0056,-0.0056,-0.0085,-0.0085,-0.0086]}]]